Weather History for Rochester, NH

Change the Weather History Date:

Sunday, February 10, 2013

  Actual Average (KSFM) Record (KSFM)
Temperature  
Mean Temperature 22 °F -  
Max Temperature 36 °F 31 °F 46 °F (2001)
Min Temperature 8 °F 11 °F -9 °F (2013)
Degree Days  
Heating Degree Days 43    
Moisture  
Dew Point 0 °F    
Average Humidity 39    
Maximum Humidity 59    
Minimum Humidity 23    
Precipitation  
Precipitation 0.00 in - - ()
Sea Level Pressure  
Sea Level Pressure 30.29 in    
Wind  
Wind Speed 4 mph (NW)    
Max Wind Speed 9 mph    
Max Gust Speed -    
Visibility 10 miles    
Events      
Averages and records for this station are not official NWS values.
T = Trace of Precipitation, MM = Missing Value Source: NWS Daily Summary

Daily Weather History Graph

Daily Weather History Graph

Search for Another Location

Airport:

Trip Planner

Search our weather history database for the weather conditions in past years. The results will help you decide how hot, cold, wet, or windy it might be!

Date:

Astronomy

Feb. 10, 2013 Rise Set
Actual Time 6:48 AM EST 5:08 PM EST
Civil Twilight 6:18 AM EST 5:37 PM EST
Nautical Twilight 5:45 AM EST 6:11 PM EST
Astronomical Twilight 5:11 AM EST 6:44 PM EST
Moon 6:34 AM EST (2/10) 5:58 PM EST (2/10)
Length of Visible Light 11h 19m
Length of Day
10h 19m
Waxing Crescent, 0% of the Moon is Illuminated
Feb 10
Waxing Crescent
Feb 17
First Quarter
Feb 25
Full
Mar 4
Last Quarter
Mar 11
New

Hourly Weather History & Observations

Time (EST) Temp. Windchill Dew Point Humidity Pressure Visibility Wind Dir Wind Speed Gust Speed Precip Events Conditions
12:51 AM 12.0 °F 5.9 °F -0.0 °F 59% 30.16 in 10.0 mi NNW 3.5 mph - N/A   Clear
1:51 AM 12.9 °F 2.6 °F -0.0 °F 56% 30.17 in 10.0 mi WNW 6.9 mph - N/A   Clear
2:51 AM 12.0 °F 1.5 °F -0.9 °F 56% 30.19 in 10.0 mi WNW 6.9 mph - N/A   Clear
3:51 AM 12.0 °F -0.4 °F -2.9 °F 51% 30.20 in 10.0 mi NW 9.2 mph - N/A   Clear
4:51 AM 10.9 °F 4.7 °F -4.0 °F 51% 30.23 in 10.0 mi NW 3.5 mph - N/A   Clear
5:51 AM 10.0 °F - -4.0 °F 53% 30.25 in 10.0 mi Calm Calm - N/A   Clear
6:51 AM 8.1 °F - -5.1 °F 55% 30.28 in 10.0 mi Calm Calm - N/A   Clear
7:51 AM 12.0 °F 4.1 °F -5.1 °F 46% 30.31 in 10.0 mi WNW 4.6 mph - N/A   Clear
8:51 AM 17.1 °F 10.0 °F -5.1 °F 37% 30.33 in 10.0 mi WNW 4.6 mph - N/A   Clear
9:51 AM 21.0 °F 13.4 °F -2.9 °F 35% 30.34 in 10.0 mi WNW 5.8 mph - N/A   Clear
10:51 AM 27.0 °F 21.6 °F -0.9 °F 30% 30.35 in 10.0 mi Variable 4.6 mph - N/A   Clear
11:51 AM 30.9 °F 23.5 °F -0.0 °F 27% 30.34 in 10.0 mi WNW 8.1 mph - N/A   Clear
12:51 PM 32.0 °F 24.2 °F 3.0 °F 29% 30.33 in 10.0 mi NW 9.2 mph - N/A   Clear
1:51 PM 35.1 °F 32.2 °F -0.0 °F 23% 30.31 in 10.0 mi WNW 3.5 mph - N/A   Clear
2:51 PM 35.1 °F 31.0 °F 1.0 °F 24% 30.30 in 10.0 mi WNW 4.6 mph - N/A   Clear
3:51 PM 36.0 °F 33.3 °F 1.0 °F 23% 30.32 in 10.0 mi WNW 3.5 mph - N/A   Clear
4:51 PM 34.0 °F - 1.9 °F 26% 30.33 in 10.0 mi Calm Calm - N/A   Clear
5:51 PM 32.0 °F - 1.0 °F 27% 30.33 in 10.0 mi Calm Calm - N/A   Clear
6:51 PM 30.0 °F - -0.9 °F 27% 30.33 in 10.0 mi Calm Calm - N/A   Clear
7:51 PM 28.0 °F - 1.0 °F 31% 30.34 in 10.0 mi Calm Calm - N/A   Clear
8:51 PM 24.1 °F - 1.0 °F 37% 30.33 in 10.0 mi Calm Calm - N/A   Clear
9:51 PM 24.1 °F - 1.0 °F 37% 30.33 in 10.0 mi Calm Calm - N/A   Clear
10:51 PM 21.0 °F 16.2 °F 5.0 °F 50% 30.33 in 10.0 mi NNW 3.5 mph - N/A   Clear
11:51 PM 18.0 °F - 5.0 °F 57% 30.33 in 10.0 mi Calm Calm - N/A   Clear